Location: Contre
(49.7477°N, 2.0963°E)
Time: 07:04:55
(UTC+00:00)

IRIDIUM 103 - Pass Details

Date: 03 February 2023
Orbit: 776 x 779 km, 86.4° (Epoch: 22 March)

Event Time Altitude Azimuth Distance (km) Brightness Sun altitude
Rises 18:44:15 0° 355° (N) 3,277 7.6 -18.7°
Reaches altitude 10° 18:46:36 10° 355° (N) 2,344 6.8 -19.1°
Maximum altitude 18:51:52 85° 267° (W) 789 4.3 -19.9°
Drops below altitude 10° 18:57:05 10° 180° (S) 2,324 6.8 -20.8°
Sets 18:59:24 0° 180° (S) 3,247 7.6 -21.1°
